EN

Hourly Weather Lukaszewko

Today, 28 November, Saturday

Time Temperature Precipitation Wind Pressure Humidity
00:00 +3°C° 0 mm 3 mps 755 mmHg 83%
01:00 +2°C° 0 mm 3 mps 755 mmHg 87%
02:00 +2°C° 0 mm 3 mps 755 mmHg 87%
03:00 +2°C° 0 mm 3 mps 755 mmHg 87%
04:00 +1°C° 0 mm 3 mps 755 mmHg 88%
05:00 +1°C° 0 mm 3 mps 755 mmHg 85%
06:00 +2°C° 0 mm 3 mps 755 mmHg 83%
07:00 +1°C° 0 mm 4 mps 755 mmHg 81%
08:00 +1°C° 0 mm 4 mps 755 mmHg 81%
09:00 +1°C° 0 mm 4 mps 756 mmHg 81%
10:00 +1°C° 0 mm 4 mps 756 mmHg 81%
11:00 +3°C° 0 mm 4 mps 756 mmHg 75%
12:00 +3°C° 0 mm 4 mps 756 mmHg 69%
13:00 +3°C° 0 mm 3 mps 756 mmHg 63%
14:00 +3°C° 0 mm 3 mps 756 mmHg 69%
15:00 +2°C° 0 mm 3 mps 756 mmHg 74%
16:00 +1°C° 0 mm 3 mps 756 mmHg 79%
17:00 +2°C° 0 mm 2 mps 756 mmHg 81%
18:00 +2°C° 0 mm 2 mps 756 mmHg 84%
19:00 +2°C° 0 mm 2 mps 756 mmHg 86%
20:00 +1°C° 0.1 mm 3 mps 756 mmHg 88%
21:00 +1°C° 0.1 mm 3 mps 756 mmHg 89%
22:00 +1°C° 0.1 mm 3 mps 756 mmHg 91%
23:00 +1°C° 0.3 mm 3 mps 756 mmHg 92%

Tomorrow, 29 November, Sunday

Time Temperature Precipitation Wind Pressure Humidity
00:00 +1°C° 0.3 mm 3 mps 756 mmHg 93%
01:00 +1°C° 0.3 mm 3 mps 756 mmHg 94%
02:00 +1°C° 0.1 mm 3 mps 755 mmHg 94%
03:00 0°C° 0.1 mm 3 mps 755 mmHg 95%
04:00 +1°C° 0.1 mm 2 mps 755 mmHg 96%
05:00 +1°C° 0.1 mm 2 mps 755 mmHg 95%
06:00 +1°C° 0.1 mm 2 mps 755 mmHg 95%
07:00 +1°C° 0.1 mm 2 mps 755 mmHg 94%
08:00 +1°C° 0 mm 2 mps 755 mmHg 91%
09:00 +1°C° 0 mm 2 mps 756 mmHg 87%
10:00 +1°C° 0 mm 2 mps 756 mmHg 84%
11:00 +1°C° 0 mm 2 mps 756 mmHg 79%
12:00 +2°C° 0 mm 2 mps 756 mmHg 75%
13:00 +2°C° 0 mm 2 mps 756 mmHg 71%
14:00 +2°C° 0 mm 2 mps 756 mmHg 72%
15:00 +1°C° 0 mm 2 mps 755 mmHg 74%
16:00 +2°C° 0 mm 1 mps 755 mmHg 76%
17:00 +2°C° 0 mm 1 mps 756 mmHg 77%
18:00 +2°C° 0 mm 1 mps 756 mmHg 78%
19:00 +1°C° 0 mm 1 mps 756 mmHg 79%
20:00 +1°C° 0 mm 1 mps 756 mmHg 80%
21:00 +1°C° 0 mm 1 mps 756 mmHg 81%
22:00 -1°C° 0 mm 0 mps 757 mmHg 82%
23:00 0°C° 0 mm 1 mps 757 mmHg 83%

Day after tomorrow, 30 November, Monday

Time Temperature Precipitation Wind Pressure Humidity
00:00 0°C° 0 mm 1 mps 757 mmHg 83%
01:00 0°C° 0 mm 1 mps 757 mmHg 84%
02:00 0°C° 0 mm 1 mps 757 mmHg 86%
03:00 +1°C° 0 mm 1 mps 757 mmHg 88%
04:00 +1°C° 0 mm 1 mps 757 mmHg 90%
05:00 +1°C° 0 mm 1 mps 757 mmHg 92%
06:00 +1°C° 0 mm 1 mps 757 mmHg 93%
07:00 -2°C° 0 mm 2 mps 757 mmHg 95%
08:00 -1°C° 0 mm 2 mps 757 mmHg 93%
09:00 -1°C° 0 mm 2 mps 757 mmHg 91%
10:00 +1°C° 0 mm 2 mps 757 mmHg 90%
11:00 +1°C° 0 mm 2 mps 757 mmHg 87%
12:00 0°C° 0 mm 3 mps 757 mmHg 85%
13:00 +1°C° 0 mm 3 mps 757 mmHg 82%
14:00 0°C° 0 mm 3 mps 757 mmHg 84%
15:00 0°C° 0 mm 3 mps 757 mmHg 86%
16:00 0°C° 0 mm 3 mps 757 mmHg 88%
17:00 0°C° 0 mm 3 mps 757 mmHg 90%
18:00 0°C° 0 mm 3 mps 757 mmHg 92%
19:00 -1°C° 0 mm 3 mps 757 mmHg 94%
20:00 -1°C° 0 mm 3 mps 757 mmHg 92%
21:00 -1°C° 0 mm 3 mps 757 mmHg 90%
22:00 -1°C° 0 mm 3 mps 757 mmHg 88%
23:00 -1°C° 0 mm 3 mps 757 mmHg 88%

1 December, Tuesday

Time Temperature Precipitation Wind Pressure Humidity
00:00 -1°C° 0 mm 3 mps 756 mmHg 87%
01:00 -2°C° 0 mm 3 mps 756 mmHg 87%
02:00 -2°C° 0 mm 3 mps 756 mmHg 85%
03:00 -1°C° 0 mm 3 mps 756 mmHg 84%
04:00 -1°C° 0 mm 3 mps 755 mmHg 82%
05:00 -1°C° 0 mm 3 mps 755 mmHg 84%
06:00 -2°C° 0 mm 3 mps 755 mmHg 86%
07:00 -2°C° 0 mm 3 mps 755 mmHg 87%
08:00 -2°C° 0 mm 4 mps 755 mmHg 84%
09:00 -2°C° 0 mm 4 mps 755 mmHg 80%
10:00 -2°C° 0 mm 4 mps 755 mmHg 77%
11:00 -1°C° 0 mm 4 mps 755 mmHg 75%
12:00 0°C° 0 mm 3 mps 755 mmHg 73%
13:00 +1°C° 0 mm 3 mps 755 mmHg 71%
14:00 0°C° 0 mm 3 mps 755 mmHg 74%
15:00 -1°C° 0 mm 3 mps 755 mmHg 77%
16:00 -1°C° 0 mm 2 mps 755 mmHg 80%
17:00 -1°C° 0 mm 2 mps 755 mmHg 82%
18:00 -2°C° 0 mm 2 mps 756 mmHg 83%
19:00 -2°C° 0 mm 2 mps 756 mmHg 84%
20:00 -2°C° 0 mm 2 mps 756 mmHg 85%
21:00 -2°C° 0 mm 2 mps 756 mmHg 86%
22:00 -2°C° 0 mm 2 mps 756 mmHg 87%
23:00 -2°C° 0 mm 2 mps 756 mmHg 87%

2 December, Wednesday

Time Temperature Precipitation Wind Pressure Humidity
00:00 -3°C° 0 mm 2 mps 757 mmHg 86%
01:00 -3°C° 0 mm 2 mps 757 mmHg 86%
02:00 -3°C° 0 mm 2 mps 756 mmHg 86%
03:00 -3°C° 0 mm 2 mps 756 mmHg 87%
04:00 -1°C° 0 mm 1 mps 756 mmHg 87%
05:00 -1°C° 0 mm 1 mps 756 mmHg 87%
06:00 -1°C° 0 mm 1 mps 757 mmHg 87%
07:00 -1°C° 0 mm 1 mps 757 mmHg 87%
08:00 0°C° 0 mm 1 mps 757 mmHg 83%
09:00 0°C° 0 mm 1 mps 757 mmHg 80%
10:00 +1°C° 0 mm 1 mps 757 mmHg 76%
11:00 +1°C° 0 mm 1 mps 757 mmHg 73%
12:00 +2°C° 0 mm 1 mps 756 mmHg 70%
13:00 +2°C° 0 mm 1 mps 756 mmHg 67%
14:00 +1°C° 0 mm 1 mps 756 mmHg 71%
15:00 +1°C° 0 mm 1 mps 756 mmHg 75%
16:00 0°C° 0 mm 1 mps 756 mmHg 79%
17:00 0°C° 0 mm 1 mps 756 mmHg 80%
18:00 -1°C° 0 mm 1 mps 756 mmHg 81%
19:00 -1°C° 0 mm 1 mps 756 mmHg 82%
20:00 -1°C° 0 mm 1 mps 756 mmHg 82%
21:00 -1°C° 0 mm 1 mps 756 mmHg 83%
22:00 -1°C° 0 mm 1 mps 756 mmHg 84%
23:00 -1°C° 0 mm 1 mps 755 mmHg 84%

3 December, Thursday

Time Temperature Precipitation Wind Pressure Humidity
00:00 -1°C° 0 mm 1 mps 755 mmHg 84%
01:00 -1°C° 0 mm 1 mps 755 mmHg 84%
02:00 -1°C° 0 mm 1 mps 755 mmHg 83%
03:00 -3°C° 0 mm 2 mps 754 mmHg 82%
04:00 -2°C° 0 mm 2 mps 754 mmHg 81%
05:00 -3°C° 0 mm 2 mps 754 mmHg 80%
06:00 -3°C° 0 mm 2 mps 754 mmHg 79%
07:00 -3°C° 0 mm 2 mps 754 mmHg 79%
08:00 -2°C° 0 mm 2 mps 754 mmHg 76%
09:00 -2°C° 0 mm 2 mps 753 mmHg 73%
10:00 -1°C° 0 mm 2 mps 753 mmHg 70%
11:00 -1°C° 0 mm 3 mps 753 mmHg 67%
12:00 0°C° 0 mm 3 mps 753 mmHg 65%
13:00 0°C° 0 mm 3 mps 752 mmHg 62%
14:00 -1°C° 0 mm 3 mps 752 mmHg 66%
15:00 -2°C° 0 mm 3 mps 751 mmHg 69%
16:00 -2°C° 0 mm 3 mps 751 mmHg 72%
17:00 -2°C° 0 mm 3 mps 751 mmHg 72%
18:00 -4°C° 0 mm 3 mps 750 mmHg 72%
19:00 -4°C° 0 mm 3 mps 750 mmHg 71%
20:00 -4°C° 0 mm 3 mps 750 mmHg 69%
21:00 -4°C° 0 mm 4 mps 750 mmHg 67%
22:00 -4°C° 0 mm 4 mps 750 mmHg 65%
23:00 -4°C° 0 mm 4 mps 749 mmHg 65%
Show more